Location: Unspecified
(42.2619°N, 0.0000°E)
Time: 10:13:57
(UTC+00:00)

Cosmos 921 Rocket - Visible Passes

Search period start: 04 April 2026 00:00
Search period end: 14 April 2026 00:00
Orbit: 563 x 620 km, 75.8° (Epoch: 29 March)

Date Brightness Start Highest point End Pass type
(mag) Time Alt. Az. Time Alt. Az. Time Alt. Az.
9 Apr 6.2 23:27:38 10° N 23:27:51 11° N 23:27:51 11° N visible
10 Apr 6.2 23:36:04 10° N 23:36:23 12° N 23:36:23 12° N visible
11 Apr 6.2 23:44:38 10° NNW 23:44:55 12° NNW 23:44:55 12° NNW visible
12 Apr 5.9 22:16:41 10° NNE 22:16:54 11° NNE 22:16:54 11° NNE visible
12 Apr 6.2 23:53:22 10° NNW 23:53:28 11° NNW 23:53:28 11° NNW visible
13 Apr 5.8 22:24:36 10° N 22:25:27 14° NNE 22:25:27 14° NNE visible
